sat.trackr.live / text

‹ back to catalog

IRIDE-MS2-HEO-14

NORAD 68986 · 2026-100G

PAYLOAD ACTIVE UNKNOWN

§ Identity

Operator
Country
IT
Launch date
2026-05-03
Launch site
AFWTR
Launch vehicle
Mass (kg)
RCS (m²)

External: N2YO · Heavens-Above · Gunter

§ Orbital elements

Epoch: 2026-09-19T23:46:34.934304Z

Period
96.55 min
Inclination
97.7227°
Eccentricity
0.0004239
Mean motion
14.91517691 rev/d
Perigee alt
590.2 km
Apogee alt
596.2 km
Semi-major
6,971.3 km
B*
1.0753e-4
RAAN
158.6021°
Arg perigee
126.2960°
Mean anomaly
233.8651°
Rev number
2,083

§ Raw data

IRIDE-MS2-HEO-141 68986U 26100G   26262.99068211  .00001022  00000+0  10753-3 0  99932 68986  97.7227 158.6021 0004239 126.2960 233.8651 14.91517691 20835

JSON: /api/v1/satellites/68986 · /tle

For live sub-satellite position, see the globe view (requires WebGL).

§ Visibility from observer

Set your observer location to see the next 7 days of passes ≥ 10°. The values pass through the URL so the page stays shareable.

No JS? Fill the form by hand. The geolocation button needs JavaScript.